Location: Tel Aviv
(32.0670°N, 34.7670°E)
Time: 01:32:09
(UTC+03:00)

UNISAT 6 - Visible Passes

Search period start: 01 April 2023 00:00
Search period end: 11 April 2023 00:00
Orbit: 602 x 680 km, 97.7° (Epoch: 31 March)

Date Brightness Start Highest point End Pass type
(mag) Time Alt. Az. Time Alt. Az. Time Alt. Az.
01 Apr ? 04:55:09 10° SE 04:58:52 28° ENE 05:02:41 10° NNE visible
02 Apr ? 05:18:14 10° SSE 05:22:30 53° ENE 05:26:52 10° N visible
03 Apr ? 05:41:50 10° S 05:46:11 77° WSW 05:50:42 10° NNW visible
04 Apr ? 04:31:17 10° ESE 04:33:49 15° ENE 04:36:23 10° NNE visible
04 Apr ? 19:40:14 10° NW 19:41:04 10° WNW 19:41:55 10° WNW visible
05 Apr ? 04:53:35 10° SE 04:57:19 27° ENE 05:01:09 10° NNE visible
06 Apr ? 05:16:37 10° SSE 05:20:54 52° ENE 05:25:20 10° N visible
07 Apr ? 05:40:09 10° S 05:44:34 80° W 05:49:08 10° NNW visible
08 Apr ? 04:29:40 10° ESE 04:32:11 15° ENE 04:34:43 10° NNE visible
08 Apr ? 19:38:25 10° NW 19:39:25 11° WNW 19:40:25 10° WNW visible
09 Apr ? 04:51:54 10° SE 04:55:39 27° ENE 04:59:29 10° NNE visible
10 Apr ? 05:14:52 10° SSE 05:19:11 51° ENE 05:23:37 10° N visible
